﻿測定場所 (Monitoring sites),日付 (Measurement date),時間 (Measurement time),線量率 最大値 (max) μGy/h,線量率 最小値 (min) μGy/h,線量率 平均値 (average) μGy/h,
足立 (Adachi),2013-04-21,23:01～24:00,0.0548,0.0478,0.0512,
足立 (Adachi),2013-04-21,22:01～23:00,0.0547,0.0471,0.0511,
足立 (Adachi),2013-04-21,21:01～22:00,0.0541,0.0476,0.0508,
足立 (Adachi),2013-04-21,20:01～21:00,0.0538,0.0486,0.0512,
足立 (Adachi),2013-04-21,19:01～20:00,0.0558,0.0491,0.0516,
足立 (Adachi),2013-04-21,18:01～19:00,0.0544,0.0466,0.0515,
足立 (Adachi),2013-04-21,17:01～18:00,0.0543,0.0483,0.0512,
足立 (Adachi),2013-04-21,16:01～17:00,0.0540,0.0486,0.0513,
足立 (Adachi),2013-04-21,15:01～16:00,0.0553,0.0483,0.0516,
足立 (Adachi),2013-04-21,14:01～15:00,0.0559,0.0500,0.0532,
足立 (Adachi),2013-04-21,13:01～14:00,0.0592,0.0524,0.0560,
足立 (Adachi),2013-04-21,12:01～13:00,0.0649,0.0558,0.0602,
足立 (Adachi),2013-04-21,11:01～12:00,0.0696,0.0584,0.0641,
足立 (Adachi),2013-04-21,10:01～11:00,0.0732,0.0652,0.0686,
足立 (Adachi),2013-04-21,09:01～10:00,0.0733,0.0654,0.0691,
足立 (Adachi),2013-04-21,08:01～09:00,0.0723,0.0648,0.0690,
足立 (Adachi),2013-04-21,07:01～08:00,0.0735,0.0635,0.0686,
足立 (Adachi),2013-04-21,06:01～07:00,0.0714,0.0629,0.0659,
足立 (Adachi),2013-04-21,05:01～06:00,0.0672,0.0589,0.0628,
足立 (Adachi),2013-04-21,04:01～05:00,0.0639,0.0539,0.0579,
足立 (Adachi),2013-04-21,03:01～04:00,0.0590,0.0521,0.0551,
足立 (Adachi),2013-04-21,02:01～03:00,0.0620,0.0540,0.0581,
足立 (Adachi),2013-04-21,01:01～02:00,0.0624,0.0544,0.0584,
足立 (Adachi),2013-04-21,00:01～01:00,0.0624,0.0558,0.0591,
足立 (Adachi),2013-04-20,23:01～24:00,0.0623,0.0552,0.0583,
足立 (Adachi),2013-04-20,22:01～23:00,0.0661,0.0560,0.0618,
足立 (Adachi),2013-04-20,21:01～22:00,0.0650,0.0590,0.0619,
足立 (Adachi),2013-04-20,20:01～21:00,0.0629,0.0557,0.0597,
足立 (Adachi),2013-04-20,19:01～20:00,0.0644,0.0563,0.0600,
足立 (Adachi),2013-04-20,18:01～19:00,0.0637,0.0553,0.0599,
足立 (Adachi),2013-04-20,17:01～18:00,0.0622,0.0536,0.0578,
足立 (Adachi),2013-04-20,16:01～17:00,0.0609,0.0533,0.0579,
足立 (Adachi),2013-04-20,15:01～16:00,0.0588,0.0515,0.0553,
足立 (Adachi),2013-04-20,14:01～15:00,0.0588,0.0511,0.0552,
足立 (Adachi),2013-04-20,13:01～14:00,0.0578,0.0511,0.0547,
足立 (Adachi),2013-04-20,12:01～13:00,0.0575,0.0509,0.0541,
足立 (Adachi),2013-04-20,11:01～12:00,0.0584,0.0506,0.0545,
足立 (Adachi),2013-04-20,10:01～11:00,0.0570,0.0508,0.0539,
足立 (Adachi),2013-04-20,09:01～10:00,0.0576,0.0512,0.0542,
足立 (Adachi),2013-04-20,08:01～09:00,0.0589,0.0512,0.0542,
足立 (Adachi),2013-04-20,07:01～08:00,0.0581,0.0506,0.0546,
足立 (Adachi),2013-04-20,06:01～07:00,0.0584,0.0501,0.0546,
足立 (Adachi),2013-04-20,05:01～06:00,0.0597,0.0505,0.0547,
足立 (Adachi),2013-04-20,04:01～05:00,0.0568,0.0517,0.0545,
足立 (Adachi),2013-04-20,03:01～04:00,0.0581,0.0514,0.0548,
足立 (Adachi),2013-04-20,02:01～03:00,0.0573,0.0501,0.0545,
足立 (Adachi),2013-04-20,01:01～02:00,0.0584,0.0507,0.0546,
足立 (Adachi),2013-04-20,00:01～01:00,0.0592,0.0510,0.0547,
足立 (Adachi),2013-04-19,23:01～24:00,0.0583,0.0504,0.0543,
足立 (Adachi),2013-04-19,22:01～23:00,0.0581,0.0511,0.0543,
足立 (Adachi),2013-04-19,21:01～22:00,0.0566,0.0508,0.0539,
足立 (Adachi),2013-04-19,20:01～21:00,0.0594,0.0522,0.0548,
足立 (Adachi),2013-04-19,19:01～20:00,0.0581,0.0509,0.0541,
足立 (Adachi),2013-04-19,18:01～19:00,0.0583,0.0511,0.0542,
足立 (Adachi),2013-04-19,17:01～18:00,0.0563,0.0504,0.0537,
足立 (Adachi),2013-04-19,16:01～17:00,0.0574,0.0516,0.0541,
足立 (Adachi),2013-04-19,15:01～16:00,0.0574,0.0509,0.0540,
足立 (Adachi),2013-04-19,14:01～15:00,0.0585,0.0501,0.0536,
足立 (Adachi),2013-04-19,13:01～14:00,0.0582,0.0505,0.0542,
足立 (Adachi),2013-04-19,12:01～13:00,0.0578,0.0512,0.0542,
足立 (Adachi),2013-04-19,11:01～12:00,0.0569,0.0492,0.0538,
足立 (Adachi),2013-04-19,10:01～11:00,0.0573,0.0506,0.0537,
足立 (Adachi),2013-04-19,09:01～10:00,0.0566,0.0487,0.0533,
足立 (Adachi),2013-04-19,08:01～09:00,0.0573,0.0491,0.0536,
足立 (Adachi),2013-04-19,07:01～08:00,0.0568,0.0503,0.0531,
足立 (Adachi),2013-04-19,06:01～07:00,0.0569,0.0486,0.0536,
足立 (Adachi),2013-04-19,05:01～06:00,0.0575,0.0507,0.0541,
足立 (Adachi),2013-04-19,04:01～05:00,0.0580,0.0516,0.0544,
足立 (Adachi),2013-04-19,03:01～04:00,0.0569,0.0510,0.0541,
足立 (Adachi),2013-04-19,02:01～03:00,0.0572,0.0503,0.0541,
足立 (Adachi),2013-04-19,01:01～02:00,0.0579,0.0508,0.0536,
足立 (Adachi),2013-04-19,00:01～01:00,0.0565,0.0501,0.0534,
足立 (Adachi),2013-04-18,23:01～24:00,0.0571,0.0513,0.0540,
足立 (Adachi),2013-04-18,22:01～23:00,0.0568,0.0508,0.0537,
足立 (Adachi),2013-04-18,21:01～22:00,0.0584,0.0511,0.0539,
足立 (Adachi),2013-04-18,20:01～21:00,0.0565,0.0497,0.0530,
足立 (Adachi),2013-04-18,19:01～20:00,0.0569,0.0502,0.0528,
足立 (Adachi),2013-04-18,18:01～19:00,0.0566,0.0503,0.0529,
足立 (Adachi),2013-04-18,17:01～18:00,0.0563,0.0495,0.0527,
足立 (Adachi),2013-04-18,16:01～17:00,0.0574,0.0502,0.0535,
足立 (Adachi),2013-04-18,15:01～16:00,0.0566,0.0494,0.0532,
足立 (Adachi),2013-04-18,14:01～15:00,0.0559,0.0503,0.0530,
足立 (Adachi),2013-04-18,13:01～14:00,0.0585,0.0503,0.0533,
足立 (Adachi),2013-04-18,12:01～13:00,0.0564,0.0497,0.0530,
足立 (Adachi),2013-04-18,11:01～12:00,0.0572,0.0505,0.0529,
足立 (Adachi),2013-04-18,10:01～11:00,0.0563,0.0495,0.0531,
足立 (Adachi),2013-04-18,09:01～10:00,0.0566,0.0500,0.0535,
足立 (Adachi),2013-04-18,08:01～09:00,0.0579,0.0502,0.0542,
足立 (Adachi),2013-04-18,07:01～08:00,0.0569,0.0507,0.0543,
足立 (Adachi),2013-04-18,06:01～07:00,0.0581,0.0501,0.0543,
足立 (Adachi),2013-04-18,05:01～06:00,0.0573,0.0498,0.0535,
足立 (Adachi),2013-04-18,04:01～05:00,0.0555,0.0501,0.0531,
足立 (Adachi),2013-04-18,03:01～04:00,0.0565,0.0504,0.0535,
足立 (Adachi),2013-04-18,02:01～03:00,0.0564,0.0485,0.0528,
足立 (Adachi),2013-04-18,01:01～02:00,0.0563,0.0489,0.0530,
足立 (Adachi),2013-04-18,00:01～01:00,0.0563,0.0494,0.0529,
足立 (Adachi),2013-04-17,23:01～24:00,0.0563,0.0486,0.0530,
足立 (Adachi),2013-04-17,22:01～23:00,0.0559,0.0489,0.0531,
足立 (Adachi),2013-04-17,21:01～22:00,0.0566,0.0492,0.0529,
足立 (Adachi),2013-04-17,20:01～21:00,0.0568,0.0501,0.0534,
足立 (Adachi),2013-04-17,19:01～20:00,0.0560,0.0500,0.0532,
足立 (Adachi),2013-04-17,18:01～19:00,0.0563,0.0486,0.0532,
足立 (Adachi),2013-04-17,17:01～18:00,0.0553,0.0499,0.0530,
足立 (Adachi),2013-04-17,16:01～17:00,0.0569,0.0505,0.0533,
足立 (Adachi),2013-04-17,15:01～16:00,0.0557,0.0494,0.0528,
足立 (Adachi),2013-04-17,14:01～15:00,0.0571,0.0496,0.0528,
足立 (Adachi),2013-04-17,13:01～14:00,0.0565,0.0497,0.0534,
足立 (Adachi),2013-04-17,12:01～13:00,0.0576,0.0503,0.0534,
足立 (Adachi),2013-04-17,11:01～12:00,0.0568,0.0500,0.0534,
足立 (Adachi),2013-04-17,10:01～11:00,0.0565,0.0503,0.0531,
足立 (Adachi),2013-04-17,09:01～10:00,0.0560,0.0496,0.0528,
足立 (Adachi),2013-04-17,08:01～09:00,0.0572,0.0500,0.0534,
足立 (Adachi),2013-04-17,07:01～08:00,0.0565,0.0480,0.0533,
足立 (Adachi),2013-04-17,06:01～07:00,0.0571,0.0502,0.0534,
足立 (Adachi),2013-04-17,05:01～06:00,0.0567,0.0504,0.0537,
足立 (Adachi),2013-04-17,04:01～05:00,0.0573,0.0507,0.0544,
足立 (Adachi),2013-04-17,03:01～04:00,0.0577,0.0513,0.0545,
足立 (Adachi),2013-04-17,02:01～03:00,0.0569,0.0510,0.0539,
足立 (Adachi),2013-04-17,01:01～02:00,0.0566,0.0506,0.0542,
足立 (Adachi),2013-04-17,00:01～01:00,0.0570,0.0499,0.0539,
足立 (Adachi),2013-04-16,23:01～24:00,0.0571,0.0504,0.0540,
足立 (Adachi),2013-04-16,22:01～23:00,0.0572,0.0511,0.0542,
足立 (Adachi),2013-04-16,21:01～22:00,0.0577,0.0507,0.0541,
足立 (Adachi),2013-04-16,20:01～21:00,0.0580,0.0499,0.0536,
足立 (Adachi),2013-04-16,19:01～20:00,0.0571,0.0512,0.0539,
足立 (Adachi),2013-04-16,18:01～19:00,0.0566,0.0495,0.0533,
足立 (Adachi),2013-04-16,17:01～18:00,0.0571,0.0495,0.0534,
足立 (Adachi),2013-04-16,16:01～17:00,0.0571,0.0485,0.0533,
足立 (Adachi),2013-04-16,15:01～16:00,0.0565,0.0498,0.0530,
足立 (Adachi),2013-04-16,14:01～15:00,0.0568,0.0487,0.0529,
足立 (Adachi),2013-04-16,13:01～14:00,0.0568,0.0505,0.0533,
足立 (Adachi),2013-04-16,12:01～13:00,0.0575,0.0494,0.0529,
足立 (Adachi),2013-04-16,11:01～12:00,0.0577,0.0492,0.0529,
足立 (Adachi),2013-04-16,10:01～11:00,0.0562,0.0511,0.0536,
足立 (Adachi),2013-04-16,09:01～10:00,0.0568,0.0493,0.0535,
足立 (Adachi),2013-04-16,08:01～09:00,0.0566,0.0508,0.0539,
足立 (Adachi),2013-04-16,07:01～08:00,0.0555,0.0475,0.0523,
足立 (Adachi),2013-04-16,06:01～07:00,0.0564,0.0494,0.0525,
足立 (Adachi),2013-04-16,05:01～06:00,0.0564,0.0483,0.0522,
足立 (Adachi),2013-04-16,04:01～05:00,0.0557,0.0486,0.0527,
足立 (Adachi),2013-04-16,03:01～04:00,0.0559,0.0505,0.0530,
足立 (Adachi),2013-04-16,02:01～03:00,0.0575,0.0511,0.0531,
足立 (Adachi),2013-04-16,01:01～02:00,0.0571,0.0502,0.0534,
足立 (Adachi),2013-04-16,00:01～01:00,0.0570,0.0508,0.0537,
足立 (Adachi),2013-04-15,23:01～24:00,0.0570,0.0508,0.0535,
足立 (Adachi),2013-04-15,22:01～23:00,0.0565,0.0506,0.0531,
足立 (Adachi),2013-04-15,21:01～22:00,0.0577,0.0502,0.0535,
足立 (Adachi),2013-04-15,20:01～21:00,0.0558,0.0500,0.0531,
足立 (Adachi),2013-04-15,19:01～20:00,0.0567,0.0496,0.0529,
足立 (Adachi),2013-04-15,18:01～19:00,0.0583,0.0496,0.0531,
足立 (Adachi),2013-04-15,17:01～18:00,0.0559,0.0508,0.0531,
足立 (Adachi),2013-04-15,16:01～17:00,0.0579,0.0488,0.0531,
足立 (Adachi),2013-04-15,15:01～16:00,0.0560,0.0494,0.0534,
足立 (Adachi),2013-04-15,14:01～15:00,0.0560,0.0497,0.0531,
足立 (Adachi),2013-04-15,13:01～14:00,0.0579,0.0500,0.0533,
足立 (Adachi),2013-04-15,12:01～13:00,0.0574,0.0504,0.0534,
足立 (Adachi),2013-04-15,11:01～12:00,0.0556,0.0503,0.0529,
足立 (Adachi),2013-04-15,10:01～11:00,0.0561,0.0502,0.0531,
足立 (Adachi),2013-04-15,09:01～10:00,0.0571,0.0492,0.0534,
足立 (Adachi),2013-04-15,08:01～09:00,0.0567,0.0492,0.0531,
足立 (Adachi),2013-04-15,07:01～08:00,0.0604,0.0500,0.0536,
足立 (Adachi),2013-04-15,06:01～07:00,0.0571,0.0499,0.0531,
足立 (Adachi),2013-04-15,05:01～06:00,0.0578,0.0508,0.0535,
足立 (Adachi),2013-04-15,04:01～05:00,0.0574,0.0501,0.0533,
足立 (Adachi),2013-04-15,03:01～04:00,0.0563,0.0501,0.0531,
足立 (Adachi),2013-04-15,02:01～03:00,0.0558,0.0498,0.0528,
足立 (Adachi),2013-04-15,01:01～02:00,0.0565,0.0498,0.0530,
足立 (Adachi),2013-04-15,00:01～01:00,0.0562,0.0493,0.0529,
